"Period start","avg(HW err(1)/warn(2) (#))","avg(Visibility (m))","avg(Weather code (#))","avg(Precip intensity (mm/h))","min(HW err(1)/warn(2) (#))","max(HW err(1)/warn(2) (#))","std(HW err(1)/warn(2) (#))","med(HW err(1)/warn(2) (#))","min(Visibility (m))","max(Visibility (m))","std(Visibility (m))","med(Visibility (m))","min(Weather code (#))","max(Weather code (#))","std(Weather code (#))","med(Weather code (#))","min(Precip intensity (mm/h))","max(Precip intensity (mm/h))","std(Precip intensity (mm/h))","med(Precip intensity (mm/h))"
2016-09-06 00:00:00,0,44215,0,0.00,0,0,0,0,36169,50000,5724,45826,0,0,0,0,0.00,0.00,0.00,0.00
2016-09-06 00:10:00,2,47252,0,0.00,0,2,1,2,41114,50000,3037,48486,0,0,0,0,0.00,0.00,0.00,0.00
2016-09-06 00:20:00,2,43403,0,0.00,0,2,1,2,32894,50000,5605,44078,0,0,0,0,0.00,0.00,0.00,0.00
2016-09-06 00:30:00,2,40618,0,0.00,2,2,0,2,30158,50000,7272,38941,0,0,0,0,0.00,0.00,0.00,0.00
2016-09-06 00:40:00,2,44370,0,0.00,2,2,0,2,37353,50000,4288,44760,0,0,0,0,0.00,0.00,0.00,0.00
2016-09-06 00:50:00,2,39751,0,0.00,2,2,0,2,28759,47592,6611,40274,0,0,0,0,0.00,0.00,0.00,0.00
2016-09-06 01:00:00,2,43086,0,0.00,2,2,0,2,34936,50000,4478,43298,0,0,0,0,0.00,0.00,0.00,0.00
2016-09-06 01:10:00,2,39830,0,0.00,2,2,0,2,20944,49017,7725,41352,0,0,0,0,0.00,0.00,0.00,0.00
2016-09-06 01:20:00,1,42405,0,0.00,0,2,1,2,33969,50000,6072,40140,0,0,0,0,0.00,0.00,0.00,0.00
2016-09-06 01:30:00,2,37026,0,0.00,2,2,0,2,17916,50000,12325,41090,0,0,0,0,0.00,0.00,0.00,0.00
2016-09-06 01:40:00,2,37032,0,0.00,2,2,0,2,26205,47437,6792,35646,0,0,0,0,0.00,0.00,0.00,0.00
2016-09-06 01:50:00,0,45740,0,0.00,0,0,0,0,28408,50000,6986,49526,0,0,0,0,0.00,0.00,0.00,0.00
2016-09-06 02:00:00,0,48145,0,0.00,0,0,0,0,42446,50000,2644,50000,0,0,0,0,0.00,0.00,0.00,0.00
2016-09-06 02:10:00,0,49418,0,0.00,0,0,0,0,46538,50000,1191,50000,0,0,0,0,0.00,0.00,0.00,0.00
2016-09-06 02:20:00,2,48850,0,0.00,2,2,0,2,40849,50000,2757,50000,0,0,0,0,0.00,0.00,0.00,0.00
2016-09-06 02:30:00,2,48201,0,0.00,0,2,1,2,40690,50000,3035,49892,0,0,0,0,0.00,0.00,0.00,0.00
2016-09-06 02:40:00,0,47233,0,0.00,0,0,0,0,35835,50000,4234,49320,0,0,0,0,0.00,0.00,0.00,0.00
2016-09-06 02:50:00,0,48185,0,0.00,0,0,0,0,42123,50000,2796,50000,0,0,0,0,0.00,0.00,0.00,0.00
2016-09-06 03:00:00,0,49575,0,0.00,0,0,0,0,47774,50000,827,50000,0,0,0,0,0.00,0.00,0.00,0.00
2016-09-06 03:10:00,0,49950,0,0.00,0,0,0,0,49504,50000,149,50000,0,0,0,0,0.00,0.00,0.00,0.00
2016-09-06 03:20:00,0,49481,0,0.00,0,0,0,0,46742,50000,1025,50000,0,0,0,0,0.00,0.00,0.00,0.00
2016-09-06 03:30:00,0,49975,0,0.00,0,0,0,0,49749,50000,75,50000,0,0,0,0,0.00,0.00,0.00,0.00
2016-09-06 03:40:00,0,50000,0,0.00,0,0,0,0,50000,50000,0,50000,0,0,0,0,0.00,0.00,0.00,0.00
2016-09-06 03:50:00,0,49888,0,0.00,0,0,0,0,48996,50000,299,50000,0,0,0,0,0.00,0.00,0.00,0.00
2016-09-06 04:00:00,0,49818,0,0.00,0,0,0,0,48475,50000,456,50000,0,0,0,0,0.00,0.00,0.00,0.00
2016-09-06 04:10:00,0,50000,0,0.00,0,0,0,0,50000,50000,0,50000,0,0,0,0,0.00,0.00,0.00,0.00
2016-09-06 04:20:00,0,49676,0,0.00,0,0,0,0,47173,50000,843,50000,0,0,0,0,0.00,0.00,0.00,0.00
2016-09-06 04:30:00,0,49696,0,0.00,0,0,0,0,46963,50000,911,50000,0,0,0,0,0.00,0.00,0.00,0.00
2016-09-06 04:40:00,0,50000,0,0.00,0,0,0,0,50000,50000,0,50000,0,0,0,0,0.00,0.00,0.00,0.00
2016-09-06 04:50:00,0,49688,0,0.00,0,0,0,0,48111,50000,641,50000,0,0,0,0,0.00,0.00,0.00,0.00
2016-09-06 05:00:00,0,50000,0,0.00,0,0,0,0,50000,50000,0,50000,0,0,0,0,0.00,0.00,0.00,0.00
2016-09-06 05:10:00,0,50000,0,0.00,0,0,0,0,50000,50000,0,50000,0,0,0,0,0.00,0.00,0.00,0.00
2016-09-06 05:20:00,0,50000,0,0.00,0,0,0,0,50000,50000,0,50000,0,0,0,0,0.00,0.00,0.00,0.00
2016-09-06 05:30:00,0,49469,0,0.00,0,0,0,0,44691,50000,1593,50000,0,0,0,0,0.00,0.00,0.00,0.00
2016-09-06 05:40:00,0,50000,0,0.00,0,0,0,0,50000,50000,0,50000,0,0,0,0,0.00,0.00,0.00,0.00
2016-09-06 05:50:00,0,49147,0,0.00,0,0,0,0,46141,50000,1440,50000,0,0,0,0,0.00,0.00,0.00,0.00
2016-09-06 06:00:00,0,50000,0,0.00,0,0,0,0,50000,50000,0,50000,0,0,0,0,0.00,0.00,0.00,0.00
2016-09-06 06:10:00,0,49668,0,0.00,0,0,0,0,46675,50000,998,50000,0,0,0,0,0.00,0.00,0.00,0.00
2016-09-06 06:20:00,0,50000,0,0.00,0,0,0,0,50000,50000,0,50000,0,0,0,0,0.00,0.00,0.00,0.00
2016-09-06 06:30:00,0,49863,0,0.00,0,0,0,0,49112,50000,270,50000,0,0,0,0,0.00,0.00,0.00,0.00
2016-09-06 06:40:00,0,50000,0,0.00,0,0,0,0,50000,50000,0,50000,0,0,0,0,0.00,0.00,0.00,0.00
2016-09-06 06:50:00,0,50000,0,0.00,0,0,0,0,50000,50000,0,50000,0,0,0,0,0.00,0.00,0.00,0.00
2016-09-06 07:00:00,0,48814,0,0.00,0,0,0,0,41539,50000,2628,50000,0,0,0,0,0.00,0.00,0.00,0.00
2016-09-06 07:10:00,0,50000,0,0.00,0,0,0,0,50000,50000,0,50000,0,0,0,0,0.00,0.00,0.00,0.00
2016-09-06 07:20:00,0,49893,0,0.00,0,0,0,0,48987,50000,303,50000,0,0,0,0,0.00,0.00,0.00,0.00
2016-09-06 07:30:00,0,50000,0,0.00,0,0,0,0,50000,50000,0,50000,0,0,0,0,0.00,0.00,0.00,0.00
2016-09-06 07:40:00,0,50000,0,0.00,0,0,0,0,50000,50000,0,50000,0,0,0,0,0.00,0.00,0.00,0.00
2016-09-06 07:50:00,0,50000,0,0.00,0,0,0,0,50000,50000,0,50000,0,0,0,0,0.00,0.00,0.00,0.00
2016-09-06 08:00:00,0,50000,0,0.00,0,0,0,0,50000,50000,0,50000,0,0,0,0,0.00,0.00,0.00,0.00
2016-09-06 08:10:00,0,50000,0,0.00,0,0,0,0,50000,50000,0,50000,0,0,0,0,0.00,0.00,0.00,0.00
2016-09-06 08:20:00,0,50000,0,0.00,0,0,0,0,50000,50000,0,50000,0,0,0,0,0.00,0.00,0.00,0.00
2016-09-06 08:30:00,0,50000,0,0.00,0,0,0,0,50000,50000,0,50000,0,0,0,0,0.00,0.00,0.00,0.00
2016-09-06 08:40:00,0,50000,0,0.00,0,0,0,0,50000,50000,0,50000,0,0,0,0,0.00,0.00,0.00,0.00
2016-09-06 08:50:00,0,49954,0,0.00,0,0,0,0,49543,50000,137,50000,0,0,0,0,0.00,0.00,0.00,0.00
2016-09-06 09:00:00,0,50000,0,0.00,0,0,0,0,50000,50000,0,50000,0,0,0,0,0.00,0.00,0.00,0.00
2016-09-06 09:10:00,0,50000,0,0.00,0,0,0,0,50000,50000,0,50000,0,0,0,0,0.00,0.00,0.00,0.00
2016-09-06 09:20:00,0,50000,0,0.00,0,0,0,0,50000,50000,0,50000,0,0,0,0,0.00,0.00,0.00,0.00
2016-09-06 09:30:00,0,50000,0,0.00,0,0,0,0,50000,50000,0,50000,0,0,0,0,0.00,0.00,0.00,0.00
2016-09-06 09:40:00,0,50000,0,0.00,0,0,0,0,50000,50000,0,50000,0,0,0,0,0.00,0.00,0.00,0.00
2016-09-06 09:50:00,0,50000,0,0.00,0,0,0,0,50000,50000,0,50000,0,0,0,0,0.00,0.00,0.00,0.00
2016-09-06 10:00:00,0,50000,0,0.00,0,0,0,0,50000,50000,0,50000,0,0,0,0,0.00,0.00,0.00,0.00
2016-09-06 10:10:00,0,50000,0,0.00,0,0,0,0,50000,50000,0,50000,0,0,0,0,0.00,0.00,0.00,0.00
2016-09-06 10:20:00,0,50000,0,0.00,0,0,0,0,50000,50000,0,50000,0,0,0,0,0.00,0.00,0.00,0.00
2016-09-06 10:30:00,0,48464,0,0.00,0,0,0,0,39519,50000,3195,50000,0,0,0,0,0.00,0.00,0.00,0.00
2016-09-06 10:40:00,0,50000,0,0.00,0,0,0,0,50000,50000,0,50000,0,0,0,0,0.00,0.00,0.00,0.00
2016-09-06 10:50:00,0,50000,0,0.00,0,0,0,0,50000,50000,0,50000,0,0,0,0,0.00,0.00,0.00,0.00
2016-09-06 11:00:00,0,50000,0,0.00,0,0,0,0,50000,50000,0,50000,0,0,0,0,0.00,0.00,0.00,0.00
2016-09-06 11:10:00,0,50000,0,0.00,0,0,0,0,50000,50000,0,50000,0,0,0,0,0.00,0.00,0.00,0.00
2016-09-06 11:20:00,0,50000,0,0.00,0,0,0,0,50000,50000,0,50000,0,0,0,0,0.00,0.00,0.00,0.00
2016-09-06 11:30:00,0,50000,0,0.00,0,0,0,0,50000,50000,0,50000,0,0,0,0,0.00,0.00,0.00,0.00
2016-09-06 11:40:00,0,50000,0,0.00,0,0,0,0,50000,50000,0,50000,0,0,0,0,0.00,0.00,0.00,0.00
2016-09-06 11:50:00,0,50000,0,0.00,0,0,0,0,50000,50000,0,50000,0,0,0,0,0.00,0.00,0.00,0.00
2016-09-06 12:00:00,0,49940,0,0.00,0,0,0,0,49400,50000,180,50000,0,0,0,0,0.00,0.00,0.00,0.00
2016-09-06 12:10:00,0,50000,0,0.00,0,0,0,0,50000,50000,0,50000,0,0,0,0,0.00,0.00,0.00,0.00
2016-09-06 12:20:00,0,50000,0,0.00,0,0,0,0,50000,50000,0,50000,0,0,0,0,0.00,0.00,0.00,0.00
2016-09-06 12:30:00,0,50000,0,0.00,0,0,0,0,50000,50000,0,50000,0,0,0,0,0.00,0.00,0.00,0.00
2016-09-06 12:40:00,0,50000,0,0.00,0,0,0,0,50000,50000,0,50000,0,0,0,0,0.00,0.00,0.00,0.00
2016-09-06 12:50:00,0,50000,0,0.00,0,0,0,0,50000,50000,0,50000,0,0,0,0,0.00,0.00,0.00,0.00
2016-09-06 13:00:00,0,50000,0,0.00,0,0,0,0,50000,50000,0,50000,0,0,0,0,0.00,0.00,0.00,0.00
2016-09-06 13:10:00,0,49616,0,0.00,0,0,0,0,47570,50000,802,50000,0,0,0,0,0.00,0.00,0.00,0.00
2016-09-06 13:20:00,0,19262,0,0.00,0,0,0,0,8082,36125,7334,19557,0,0,0,0,0.00,0.00,0.00,0.00
2016-09-06 13:30:00,0,49645,0,0.00,0,0,0,0,46447,50000,1066,50000,0,0,0,0,0.00,0.00,0.00,0.00
2016-09-06 13:40:00,0,50000,0,0.00,0,0,0,0,50000,50000,0,50000,0,0,0,0,0.00,0.00,0.00,0.00
2016-09-06 13:50:00,0,50000,0,0.00,0,0,0,0,50000,50000,0,50000,0,0,0,0,0.00,0.00,0.00,0.00
2016-09-06 14:00:00,0,49224,0,0.00,0,0,0,0,44516,50000,1710,50000,0,0,0,0,0.00,0.00,0.00,0.00
2016-09-06 14:10:00,0,26633,0,0.00,0,0,0,0,12616,36608,8691,29372,0,0,0,0,0.00,0.00,0.00,0.00
2016-09-06 14:20:00,0,13506,0,0.00,0,0,0,0,7421,25901,6061,10274,0,0,0,0,0.00,0.00,0.00,0.00
2016-09-06 14:30:00,0,18152,0,0.00,0,0,0,0,4983,33381,8318,16442,0,0,0,0,0.00,0.00,0.00,0.00
2016-09-06 14:40:00,0,3430,9,0.00,0,0,0,0,1692,6127,1440,3295,0,10,3,10,0.00,0.00,0.00,0.00
2016-09-06 14:50:00,0,1835,10,0.00,0,0,0,0,1213,2893,505,1738,10,10,0,10,0.00,0.00,0.00,0.00
2016-09-06 15:00:00,0,1668,10,0.00,0,0,0,0,1348,2014,233,1678,10,10,0,10,0.00,0.00,0.00,0.00
2016-09-06 15:10:00,0,1417,15,0.00,0,0,0,0,1092,1837,248,1454,10,61,15,10,0.00,0.00,0.00,0.00
2016-09-06 15:20:00,1,1665,53,1.36,0,2,1,0,1480,1945,122,1678,52,61,3,52,0.45,2.05,0.54,1.45
2016-09-06 15:30:00,2,1795,51,0.44,0,2,1,2,1587,2087,121,1796,51,51,0,51,0.15,0.85,0.22,0.35
2016-09-06 15:40:00,2,1670,52,1.27,0,2,1,2,1501,1883,117,1674,52,52,0,52,0.75,2.35,0.47,1.30
2016-09-06 15:50:00,2,1702,52,1.48,2,2,0,2,1021,2284,352,1778,52,52,0,52,0.60,3.80,0.86,1.20
2016-09-06 16:00:00,2,810,54,2.06,2,2,0,2,626,1103,138,783,52,61,4,52,1.20,4.75,1.04,1.60
2016-09-06 16:10:00,2,22648,61,1.31,2,2,0,2,1805,36131,12948,28656,61,61,0,61,0.35,4.10,1.23,0.62
2016-09-06 16:20:00,2,34570,38,0.10,2,2,0,2,21632,50000,10452,31968,0,61,22,36,0.00,0.30,0.11,0.03
2016-09-06 16:30:00,2,49958,20,0.00,2,2,0,2,49585,50000,124,50000,20,20,0,20,0.00,0.00,0.00,0.00
2016-09-06 16:40:00,2,39726,57,1.57,2,2,0,2,24116,50000,7871,39398,20,61,12,61,0.00,3.75,1.53,0.60
2016-09-06 16:50:00,2,12960,61,9.22,2,2,0,2,9833,21157,3165,12444,61,62,0,61,3.10,18.55,4.20,8.30
2016-09-06 17:00:00,2,10947,61,10.12,2,2,0,2,2741,14915,3189,11078,61,62,0,61,5.30,18.45,4.26,9.12
2016-09-06 17:10:00,2,6642,62,12.32,2,2,0,2,1833,14589,4382,5283,61,62,0,62,5.15,20.50,4.75,12.03
2016-09-06 17:20:00,2,12472,61,2.93,2,2,0,2,9357,16964,2310,11856,61,61,0,61,2.05,5.55,0.99,2.65
2016-09-06 17:30:00,2,14676,61,4.05,2,2,0,2,11932,16900,1430,14719,61,61,0,61,1.80,5.95,1.39,3.95
2016-09-06 17:40:00,2,16553,61,2.65,2,2,0,2,13179,18836,1734,16908,61,61,0,61,1.30,4.90,0.96,2.38
2016-09-06 17:50:00,2,21390,61,3.64,2,2,0,2,14338,30437,4238,20992,61,61,0,61,2.65,5.70,0.76,3.40
2016-09-06 18:00:00,2,25450,61,3.35,2,2,0,2,19800,34711,4749,25748,61,61,0,61,0.70,6.80,1.77,3.15
2016-09-06 18:10:00,2,25195,57,1.57,2,2,0,2,17874,33843,4313,24812,52,61,4,61,0.70,2.45,0.53,1.38
2016-09-06 18:20:00,2,22162,54,1.42,2,2,0,2,17109,25878,2828,21680,52,61,4,52,0.50,2.05,0.47,1.55
2016-09-06 18:30:00,2,29105,52,1.17,2,2,0,2,21683,38148,5083,29372,52,52,0,52,0.70,1.60,0.32,1.23
2016-09-06 18:40:00,2,24822,52,0.91,2,2,0,2,19286,29422,3295,24420,52,52,0,52,0.25,1.55,0.37,0.93
2016-09-06 18:50:00,2,25301,54,1.30,2,2,0,2,20373,34938,4287,23938,52,61,4,52,0.50,2.20,0.60,1.53
2016-09-06 19:00:00,2,34064,52,1.01,2,2,0,2,29591,40860,3298,34094,52,52,0,52,0.65,1.45,0.27,0.95
2016-09-06 19:10:00,2,33494,56,0.99,2,2,0,2,26316,45074,5969,31402,52,61,4,52,0.25,1.80,0.53,1.00
2016-09-06 19:20:00,2,36320,55,0.36,0,2,1,2,24568,48536,8630,37788,52,61,4,52,0.00,1.10,0.38,0.12
2016-09-06 19:30:00,0,44436,23,0.04,0,0,0,0,36090,49643,4012,43778,0,61,29,0,0.00,0.25,0.08,0.00
2016-09-06 19:40:00,0,29295,51,0.64,0,0,0,0,22503,40201,5320,28921,51,52,0,51,0.15,1.85,0.57,0.38
2016-09-06 19:50:00,0,20884,36,0.11,0,0,0,0,14826,24530,3123,21718,0,51,23,51,0.00,0.25,0.10,0.08
2016-09-06 20:00:00,0,23474,0,0.00,0,0,0,0,15249,32321,4705,24134,0,0,0,0,0.00,0.00,0.00,0.00
2016-09-06 20:10:00,0,46583,0,0.00,0,0,0,0,37838,50000,4343,48700,0,0,0,0,0.00,0.00,0.00,0.00
2016-09-06 20:20:00,0,49559,0,0.00,0,0,0,0,45589,50000,1323,50000,0,0,0,0,0.00,0.00,0.00,0.00
2016-09-06 20:30:00,0,49949,0,0.00,0,0,0,0,49720,50000,97,50000,0,0,0,0,0.00,0.00,0.00,0.00
2016-09-06 20:40:00,0,48380,28,0.11,0,0,0,0,38910,50000,3346,50000,0,61,28,26,0.00,0.40,0.13,0.05
2016-09-06 20:50:00,0,38565,51,0.15,0,0,0,0,30787,49446,6484,37388,51,51,0,51,0.05,0.40,0.11,0.10
2016-09-06 21:00:00,0,43891,51,1.34,0,0,0,0,30032,49355,6559,46550,51,51,0,51,0.10,5.80,2.16,0.33
2016-09-06 21:10:00,0,26003,61,3.67,0,0,0,0,17658,39631,6428,23607,61,61,0,61,1.00,7.75,1.87,3.75
2016-09-06 21:20:00,0,30948,53,0.12,0,0,0,0,24439,43402,6705,27642,51,61,4,51,0.05,0.35,0.09,0.10
2016-09-06 21:30:00,0,27292,54,0.99,0,0,0,0,18625,31755,4224,28032,51,61,5,51,0.00,2.85,1.01,0.50
2016-09-06 21:40:00,0,15204,58,3.61,0,0,0,0,11887,20948,2742,14006,52,61,4,61,2.20,8.55,1.91,2.78
2016-09-06 21:50:00,1,13064,61,4.72,0,2,1,1,10229,15006,1313,13034,61,62,0,61,1.80,12.40,3.51,3.35
2016-09-06 22:00:00,2,11444,59,3.97,2,2,0,2,9905,13889,1292,11254,52,61,4,61,1.10,7.30,2.08,3.53
2016-09-06 22:10:00,2,16976,56,1.85,2,2,0,2,14081,21078,2205,17380,52,61,4,52,0.30,4.90,1.47,1.55
2016-09-06 22:20:00,2,15115,51,0.61,2,2,0,2,12658,16818,1061,15075,51,52,0,51,0.20,2.20,0.63,0.35
2016-09-06 22:30:00,2,16755,61,2.56,0,2,1,2,14151,20435,1991,16280,61,61,0,61,1.30,4.25,0.77,2.55
2016-09-06 22:40:00,2,14244,54,1.69,2,2,0,2,9523,20900,3727,14186,52,61,4,52,1.00,2.75,0.54,1.68
2016-09-06 22:50:00,2,10651,52,0.45,2,2,0,2,8763,12221,1036,10952,51,52,0,52,0.15,0.95,0.25,0.35
2016-09-06 23:00:00,2,10602,51,0.13,2,2,0,2,8801,11664,856,10813,51,51,0,51,0.05,0.15,0.03,0.15
2016-09-06 23:10:00,1,11314,51,0.11,0,2,1,0,9247,13068,1282,11566,51,51,0,51,0.05,0.20,0.05,0.10
2016-09-06 23:20:00,0,12857,10,0.02,0,0,0,0,9531,16408,2386,12650,0,51,20,0,0.00,0.10,0.04,0.00
2016-09-06 23:30:00,0,20183,0,0.00,0,0,0,0,16239,25936,3025,19706,0,0,0,0,0.00,0.00,0.00,0.00
2016-09-06 23:40:00,0,37268,46,0.04,0,0,0,0,25797,45333,5973,38533,0,61,23,56,0.00,0.15,0.05,0.03
2016-09-06 23:50:00,0,29438,56,0.25,0,0,0,0,14791,43814,9769,28522,51,61,5,56,0.00,0.70,0.21,0.23
